[[{"header":{"parameterUnit":"m.s-1","parameterCategory":1,"la1":30.2991,"la2":30.254,"lo1":-89.0895,"lo2":-89.0444,"dy":0.0017,"dx":0.0017,"nx":28,"ny":28,"refTime":"2024-08-06T09:00:00:Z","depth":0,"parameterNumber":2,"parameterNumberName":"U-component_of_WINDS"},"data":[0,0,0,0,0,0,0,0,0,0,0,0,0,0,0,0,0,0,0,0,0,0,0,0,0,0,0,0,0,0,0,0,0,0,0,0,0,0,0,0,0,0,0,0,0,0,0,0,0,0,0,0,0,0,0,0,0,0,3.0259,3.026,0,3.0312,3.0313,3.0314,3.0301,3.03,3.0299,3.0298,3.0354,3.0356,3.0358,0,0,0,0,0,0,0,0,0,0,0,0,0,3.0148,3.015,3.0259,3.026,3.026,3.0312,3.0313,3.0314,3.0301,3.03,3.0299,3.0297,3.0353,3.0356,3.0359,0,0,0,0,0,0,0,0,0,0,0,0,0,3.0198,3.0151,3.0259,3.026,3.0261,3.0312,3.0313,3.0314,3.0301,3.03,3.0298,3.0297,3.0352,3.0355,3.0359,3.0412,0,0,3.037,3.0372,0,0,0,0,0,0,0,0,3.0195,3.0202,3.0259,3.026,3.0261,3.0298,3.0294,3.0347,3.0302,3.0286,3.0298,3.0296,3.0336,3.0341,3.0355,3.0415,3.0417,3.037,3.0373,3.0374,3.0375,0,0,0,0,0,0,0,3.0192,3.02,3.028,3.026,3.0261,3.0259,3.0264,3.0304,3.0319,3.0287,3.0286,3.0293,3.0337,3.0351,3.0356,3.0418,3.037,3.0374,3.0376,3.0377,3.0528,3.0529,0,0,0,0,0,0,3.0187,3.0197,3.0278,3.0282,3.0224,3.0262,3.0268,3.0288,3.0319,3.0322,3.0294,3.0292,3.0346,3.0352,3.0358,3.0425,3.0374,3.0378,3.038,3.0526,3.0528,3.053,0,0,0,0,0,0,3.0185,3.0195,3.0276,3.0239,3.0249,3.0266,3.0288,3.029,3.0304,3.0324,3.0327,3.0306,3.0345,3.0353,3.04,3.0426,3.0379,3.0383,3.0524,3.0527,3.0529,3.0557,0,0,0,0,0,0,3.0182,3.0194,3.0214,3.024,3.0251,3.0316,3.029,3.0292,3.0311,3.0308,3.0336,3.0339,3.0344,3.0394,3.0403,3.043,3.0386,3.0522,3.0525,3.0528,3.0554,3.056,3.0566,0,0,0,0,0,3.0178,3.0219,3.0215,3.0225,3.0277,3.0318,3.0325,3.0329,3.0313,3.0334,3.0346,3.0338,3.0421,3.0399,3.0409,3.0438,3.052,3.0524,3.0528,3.0551,3.0559,3.0566,0,0,0,0,0,0,3.0196,3.0223,3.0218,3.0269,3.0291,3.0316,3.0342,3.0337,3.0365,3.0362,3.0367,3.0373,3.0421,3.0434,3.0408,3.0492,3.0468,3.0475,3.0483,3.049,3.0496,3.0493,3.0389,0,0,0,0,0,3.0206,3.0237,3.0259,3.0302,3.0313,3.0326,3.0344,3.0345,3.0369,3.0378,3.0395,3.0418,3.045,3.047,3.05,3.0555,3.0562,3.058,3.0586,3.0591,3.0597,3.0629,3.0638,3.0543,3.0543,3.0543,0,0,3.0227,3.0246,3.0265,3.0306,3.0323,3.0356,3.0334,3.0369,3.0394,3.0384,3.043,3.0442,3.0469,3.052,3.0544,3.0533,3.0624,3.0596,3.06,3.0603,3.0634,3.0643,3.0651,3.0546,3.0546,3.0545,0,0,3.0283,3.0299,3.0337,3.0356,3.0382,3.0391,3.04,3.0425,3.0434,3.0479,3.0473,3.0503,3.0557,3.0577,3.0594,3.0658,3.0653,3.0668,3.07,3.0731,3.0739,3.0745,3.077,3.0779,3.0673,3.0673,3.0673,0,3.0306,3.0354,3.0358,3.0394,3.0413,3.0406,3.0446,3.0463,3.0499,3.0512,3.0499,3.0567,3.0585,3.0642,3.0658,3.0671,3.0683,3.0665,3.0737,3.0744,3.075,3.0774,3.0783,3.0675,3.0675,3.0675,3.0674,0,3.0382,3.0416,3.0444,3.0479,3.0501,3.0539,3.0549,3.0571,3.0571,3.0581,3.0629,3.0649,3.0684,3.0698,3.0698,3.0756,3.0748,3.0736,3.0712,3.0761,3.0784,3.0793,3.0678,3.0677,3.0676,3.0676,0,0,3.0451,3.0488,3.0498,3.0515,3.0544,3.0571,3.0609,3.0643,3.0663,3.0688,3.0721,3.0767,3.0757,3.0776,3.0779,3.0806,3.0858,3.0791,3.0791,3.0804,3.0926,3.0936,3.0946,3.0854,3.0856,3.0857,3.0924,0,3.0511,3.0578,3.0583,3.0644,3.0676,3.067,3.0703,3.0726,3.0736,3.0766,3.0778,3.0811,3.0794,3.0806,3.0832,3.0846,3.0883,3.0841,3.0887,3.0888,3.0882,3.0958,3.0969,3.1031,3.0933,3.0934,3.0935,0,3.0589,3.0617,3.0682,3.0708,3.0722,3.0752,3.0785,3.0813,3.0838,3.0844,3.0867,3.0866,3.0906,3.088,3.0937,3.0908,3.0927,3.0937,3.0939,3.0945,3.0916,3.0968,3.1051,3.1061,3.0949,3.0948,3.0947,0,3.0636,3.0689,3.0735,3.0749,3.0781,3.0802,3.0817,3.0841,3.0861,3.089,3.0904,3.0937,3.0955,3.0981,3.0989,3.0969,3.1047,3.1021,3.1054,3.1054,3.1072,3.1071,3.1161,3.1081,3.1081,3.1081,3.1081,0,3.0703,3.0743,3.0757,3.0785,3.0831,3.0836,3.0881,3.0894,3.0915,3.0947,3.0943,3.0973,3.0981,3.1013,3.102,3.1067,3.1075,3.1082,3.1084,3.1083,3.1083,3.1097,3.1094,3.1083,3.1083,3.1082,3.1082,0,3.0763,3.0774,3.0824,3.085,3.0857,3.089,3.0912,3.094,3.095,3.0991,3.1,3.1017,3.1054,3.1065,3.1109,3.1114,3.117,3.1167,3.1162,3.1162,3.1196,3.1193,3.13,3.1315,3.1223,3.1224,3.1224,0,3.0807,3.0838,3.0867,3.0888,3.0903,3.0937,3.0958,3.0965,3.0987,3.102,3.1044,3.1081,3.1111,3.1171,3.1188,3.1222,3.1221,3.1256,3.1226,3.1226,3.1224,3.1223,3.1227,3.1262,3.1263,3.1264,3.1264,0,3.0883,3.0887,3.0918,3.0951,3.0977,3.1003,3.1029,3.1046,3.1056,3.1082,3.112,3.1144,3.119,3.1227,3.1262,3.1278,3.1274,3.1273,3.1283,3.1284,3.1281,3.1286,3.1179,3.1271,3.1271,3.127,3.127,3.1269,3.0938,3.0966,3.0991,3.1026,3.1046,3.107,3.1098,3.1112,3.1144,3.1182,3.1184,3.1226,3.1252,3.1299,3.1317,3.135,3.134,3.1354,3.1358,3.1362,3.1366,3.1274,3.1356,3.1356,3.1356,3.1356,3.1356,0,3.1016,3.1032,3.1064,3.11,3.1128,3.1121,3.1149,3.1173,3.121,3.1235,3.1264,3.1309,3.1346,3.1365,3.1401,3.1425,3.1424,3.1434,3.1434,3.1438,3.1372,3.136,3.1435,3.1435,3.1435,3.1435,3.1435,3.1435,3.106,3.1108,3.1115,3.1173,3.1188,3.123,3.1247,3.1269,3.1289,3.1339,3.137,3.1382,3.1405,3.1443,3.1477,3.1482,3.1496,3.1508,3.1512,3.145,3.1442,3.1435,3.1424,3.1511,3.1511,3.1576,3.1577,3.1577]},{"header":{"parameterUnit":"m.s-1","parameterCategory":1,"la1":30.2991,"la2":30.254,"lo1":-89.0895,"lo2":-89.0444,"dy":0.0017,"dx":0.0017,"nx":28,"ny":28,"refTime":"2024-08-06T09:00:00:Z","depth":0,"parameterNumber":3,"parameterNumberName":"V-component_of_WINDS"},"data":[0,0,0,0,0,0,0,0,0,0,0,0,0,0,0,0,0,0,0,0,0,0,0,0,0,0,0,0,0,0,0,0,0,0,0,0,0,0,0,0,0,0,0,0,0,0,0,0,0,0,0,0,0,0,0,0,0,0,-1.022,-1.022,0,-1.0253,-1.0254,-1.0254,-1.0282,-1.0283,-1.0283,-1.0283,-1.0318,-1.0318,-1.0319,0,0,0,0,0,0,0,0,0,0,0,0,0,-1.0183,-1.0183,-1.022,-1.0221,-1.0221,-1.0253,-1.0254,-1.0254,-1.0282,-1.0283,-1.0283,-1.0284,-1.0317,-1.0318,-1.0319,0,0,0,0,0,0,0,0,0,0,0,0,0,-1.0206,-1.0183,-1.022,-1.0239,-1.0241,-1.0253,-1.0254,-1.0254,-1.0282,-1.0283,-1.0283,-1.0284,-1.0317,-1.0318,-1.0319,-1.0316,0,0,-1.0322,-1.0322,0,0,0,0,0,0,0,0,-1.0204,-1.0207,-1.0236,-1.0238,-1.024,-1.0264,-1.0253,-1.0275,-1.0282,-1.0267,-1.0283,-1.0284,-1.03,-1.0302,-1.0307,-1.0317,-1.0319,-1.0322,-1.0323,-1.0323,-1.0323,0,0,0,0,0,0,0,-1.0203,-1.0206,-1.0233,-1.0236,-1.0239,-1.0246,-1.025,-1.0258,-1.028,-1.0268,-1.027,-1.0274,-1.0301,-1.0306,-1.0308,-1.0319,-1.0322,-1.0323,-1.0323,-1.0324,-1.0331,-1.033,0,0,0,0,0,0,-1.0198,-1.0204,-1.0232,-1.0234,-1.0223,-1.0247,-1.0251,-1.0256,-1.028,-1.0284,-1.0273,-1.0275,-1.0304,-1.0307,-1.031,-1.0309,-1.0323,-1.0324,-1.0324,-1.0331,-1.0331,-1.033,0,0,0,0,0,0,-1.0197,-1.02,-1.0231,-1.022,-1.0224,-1.0247,-1.0252,-1.0256,-1.0262,-1.0284,-1.0288,-1.0275,-1.0305,-1.0308,-1.0314,-1.031,-1.0324,-1.0325,-1.0332,-1.0331,-1.033,-1.0306,0,0,0,0,0,0,-1.0196,-1.02,-1.0198,-1.022,-1.0225,-1.0235,-1.0252,-1.0257,-1.0263,-1.0266,-1.0286,-1.029,-1.0306,-1.0313,-1.0315,-1.0312,-1.0326,-1.0332,-1.0331,-1.0331,-1.0307,-1.0305,-1.0302,0,0,0,0,0,-1.0194,-1.0189,-1.0198,-1.0201,-1.0223,-1.0234,-1.0237,-1.0255,-1.0263,-1.0262,-1.0277,-1.029,-1.031,-1.0313,-1.0316,-1.0313,-1.0332,-1.0331,-1.0331,-1.0308,-1.0305,-1.0302,0,0,0,0,0,0,-1.0166,-1.0192,-1.0202,-1.0204,-1.0217,-1.0239,-1.0238,-1.0251,-1.0261,-1.0263,-1.0285,-1.0289,-1.0294,-1.0304,-1.0307,-1.0312,-1.0323,-1.0323,-1.0305,-1.0302,-1.03,-1.0297,-1.0327,0,0,0,0,0,-1.016,-1.0167,-1.0189,-1.0189,-1.0195,-1.0215,-1.0221,-1.0233,-1.0248,-1.0253,-1.0268,-1.0282,-1.0292,-1.0297,-1.0308,-1.0309,-1.0315,-1.0308,-1.0306,-1.0304,-1.0303,-1.0307,-1.0305,-1.0327,-1.0327,-1.0327,0,0,-1.0148,-1.0163,-1.0165,-1.0183,-1.0195,-1.0202,-1.022,-1.0226,-1.0231,-1.0254,-1.0261,-1.0273,-1.029,-1.0294,-1.0297,-1.0303,-1.0299,-1.0303,-1.0301,-1.0302,-1.0306,-1.0304,-1.0302,-1.0327,-1.0327,-1.0327,0,0,-1.0129,-1.014,-1.0142,-1.0153,-1.0171,-1.0185,-1.0185,-1.0206,-1.0215,-1.0223,-1.0241,-1.0248,-1.0264,-1.0276,-1.0284,-1.0272,-1.0285,-1.0275,-1.0262,-1.0265,-1.0263,-1.0262,-1.0259,-1.0258,-1.0274,-1.0274,-1.0274,0,-1.0111,-1.0122,-1.0141,-1.0147,-1.0155,-1.0176,-1.0179,-1.0189,-1.0209,-1.0215,-1.0221,-1.0243,-1.0256,-1.0264,-1.0262,-1.0267,-1.0269,-1.0272,-1.0262,-1.0261,-1.026,-1.0257,-1.0256,-1.0273,-1.0273,-1.0273,-1.0273,0,-1.01,-1.0107,-1.0107,-1.0126,-1.0134,-1.0138,-1.0159,-1.0165,-1.0177,-1.0191,-1.02,-1.0216,-1.0231,-1.0234,-1.0245,-1.0244,-1.0248,-1.0258,-1.027,-1.0256,-1.0254,-1.0253,-1.0271,-1.0271,-1.0272,-1.0272,0,0,-1.0063,-1.0094,-1.0094,-1.0104,-1.0126,-1.0132,-1.0138,-1.0153,-1.0158,-1.0172,-1.0178,-1.0192,-1.0202,-1.0211,-1.0225,-1.0228,-1.0219,-1.0238,-1.0239,-1.0235,-1.0221,-1.0214,-1.0212,-1.0228,-1.0228,-1.0228,-1.022,0,-1.0048,-1.006,-1.0078,-1.0084,-1.0092,-1.0114,-1.0119,-1.0134,-1.0147,-1.0157,-1.0172,-1.0182,-1.0194,-1.02,-1.0203,-1.022,-1.0217,-1.022,-1.0235,-1.0236,-1.0231,-1.0211,-1.0203,-1.0195,-1.022,-1.0219,-1.0219,0,-1.0032,-1.0046,-1.0052,-1.0075,-1.0079,-1.0084,-1.01,-1.0108,-1.0126,-1.0136,-1.0147,-1.0163,-1.0171,-1.0182,-1.0195,-1.0197,-1.0204,-1.0213,-1.0213,-1.0216,-1.0227,-1.0214,-1.0192,-1.0191,-1.0218,-1.0218,-1.0218,0,-1.0007,-1.0026,-1.0033,-1.004,-1.0067,-1.007,-1.0081,-1.01,-1.0108,-1.0122,-1.0128,-1.0143,-1.0152,-1.0163,-1.0183,-1.0189,-1.0195,-1.0206,-1.0204,-1.0203,-1.0204,-1.0204,-1.0184,-1.0208,-1.0208,-1.0208,-1.0208,0,-0.9989,-0.9992,-1.0022,-1.0026,-1.0031,-1.0053,-1.0058,-1.0071,-1.0088,-1.0096,-1.0115,-1.0123,-1.0148,-1.0158,-1.0174,-1.0183,-1.0187,-1.0196,-1.02,-1.0194,-1.0193,-1.0199,-1.0201,-1.0207,-1.0207,-1.0208,-1.0208,0,-0.996,-0.998,-0.9989,-1.0014,-1.0021,-1.0024,-1.0046,-1.0052,-1.0067,-1.0077,-1.0081,-1.0105,-1.0119,-1.0139,-1.0159,-1.017,-1.0177,-1.0183,-1.0171,-1.0174,-1.0171,-1.0171,-1.0155,-1.0155,-1.0177,-1.0177,-1.0177,0,-0.9948,-0.9951,-0.9977,-0.9984,-0.9995,-1.0006,-1.0015,-1.0037,-1.0046,-1.0067,-1.0071,-1.0086,-1.01,-1.0121,-1.0141,-1.0157,-1.0164,-1.0157,-1.0167,-1.0162,-1.0165,-1.0165,-1.0166,-1.0155,-1.0155,-1.0155,-1.0154,0,-0.9924,-0.9934,-0.9946,-0.9962,-0.9973,-0.9986,-1.0001,-1.0006,-1.0031,-1.0041,-1.0055,-1.0066,-1.0087,-1.0103,-1.0121,-1.0134,-1.0149,-1.0151,-1.0152,-1.0146,-1.014,-1.0145,-1.0166,-1.0152,-1.0152,-1.0152,-1.0152,-1.0152,-0.9904,-0.9909,-0.9928,-0.9942,-0.9955,-0.9969,-0.9976,-0.9993,-1.0005,-1.0024,-1.0037,-1.0051,-1.0071,-1.0098,-1.011,-1.0123,-1.0129,-1.0129,-1.0129,-1.0129,-1.0128,-1.0137,-1.0126,-1.0126,-1.0126,-1.0126,-1.0126,0,-0.9882,-0.9896,-0.9908,-0.9929,-0.994,-0.9953,-0.9971,-0.9979,-0.9991,-1.0008,-1.0022,-1.004,-1.0055,-1.0077,-1.0095,-1.0101,-1.0108,-1.0105,-1.0105,-1.0108,-1.0121,-1.0119,-1.0098,-1.0098,-1.0098,-1.0098,-1.0098,-1.0098,-0.9872,-0.9882,-0.9894,-0.9911,-0.9925,-0.994,-0.9949,-0.9962,-0.9976,-0.9995,-1.0008,-1.0022,-1.0042,-1.0062,-1.0077,-1.0083,-1.0089,-1.0084,-1.0092,-1.0104,-1.0106,-1.0109,-1.0107,-1.0085,-1.0085,-1.0078,-1.0078,-1.0078]}]]